Temp
71 74 74 75 61 59 56 69 78 77 75 78 83 80 74 75 73 59 78 83 82 78 76 78 79 79 79 78 78 78 77 77 77 77 77 77 77 77 77 77 77 77 77 77 78 79 79 79 79
76 81 78 71 57 50 57 72 76 74 79 83 82 81 78 73 82 80 79 83 82 79 75 76 78 78 78 78 78 77 77 77 77 77 77 77 77 77 77 77 77 77 77 77 78 78 79 79 79
82 87 70 64 58 54 61 73 80 80 84 81 78 85 81 76 83 81 83 84 80 78 77 77 78 78 78 78 78 77 77 77 76 77 77 77 77 77 76 76 77 77 77 77 77 78 78 79 79
79 76 73 59 58 69 73 77 81 79 83 83 82 78 81 85 84 84 86 87 84 80 81 78 78 78 78 78 78 77 77 77 77 77 77 77 77 77 77 77 77 77 77 77 78 78 78 78 78
77 72 59 57 63 73 76 81 78 77 80 80 83 77 74 82 86 85 85 87 82 75 75 76 78 77 78 78 78 77 77 76 75 76 77 76 76 76 76 76 76 76 77 77 77 77 77 77 77
68 69 55 54 65 77 78 78 79 78 81 82 79 75 73 82 84 83 84 82 79 75 74 75 78 77 77 77 77 75 74 73 73 73 74 74 74 74 75 75 75 76 77 77 77 76 77 76 75
65 60 58 63 67 72 79 82 78 78 76 77 82 73 72 79 82 82 81 79 79 79 75 73 72 76 77 76 75 74 73 73 73 73 73 73 73 73 73 74 74 75 75 76 76 75 76 75 75
72 64 61 66 66 67 82 84 83 81 81 89 88 75 68 76 81 80 78 77 78 77 75 71 69 70 69 70 75 74 74 74 73 73 73 72 71 72 73 73 73 74 75 75 75 75 75 75 74
81 61 60 64 68 72 79 77 85 87 82 84 86 83 82 82 82 77 73 73 74 77 74 73 71 69 68 67 71 73 75 75 74 73 74 71 66 64 68 71 73 73 74 75 75 74 74 75 74
72 64 66 75 77 75 77 77 79 81 80 81 83 83 84 83 77 75 73 73 74 74 72 72 69 68 69 75 66 65 69 66 66 66 65 64 63 63 69 71 74 74 74 74 74 74 73 74 67
75 66 75 77 82 83 79 77 82 80 76 80 78 78 79 78 75 75 74 73 71 74 71 70 69 68 67 66 64 64 64 63 63 65 64 62 63 62 62 63 65 64 70 65 70 69 69 68 65
70 76 78 80 83 82 76 80 79 81 81 86 86 82 79 76 74 74 74 72 72 71 71 70 68 67 66 64 64 63 63 62 62 62 63 61 60 61 61 62 63 63 63 62 63 63 64 66 66
72 76 80 82 83 78 80 77 78 81 84 88 88 84 76 74 75 74 75 72 71 70 69 67 68 65 65 64 63 63 62 62 63 62 63 62 61 62 62 61 62 61 62 62 62 62 63 64 65
77 78 79 81 80 78 76 78 81 82 85 85 84 81 80 77 75 73 73 71 70 69 69 68 68 65 65 63 63 63 63 63 63 62 62 64 65 62 60 61 60 60 61 61 61 62 62 62 63
77 71 76 78 79 75 81 73 75 80 83 81 80 80 79 78 76 74 72 69 69 68 70 68 67 67 65 64 64 63 63 64 62 62 64 65 64 63 61 60 60 60 60 61 61 61 61 61 63
70 71 63 72 77 80 76 65 76 81 79 77 80 80 79 76 76 72 71 70 69 69 68 68 74 67 65 64 65 64 64 63 62 62 62 63 64 62 61 60 59 60 60 60 60 60 60 61 62
66 57 60 67 78 78 74 69 78 80 80 76 76 76 78 75 71 71 72 69 68 69 68 67 68 68 66 66 65 64 65 63 63 63 61 62 63 64 61 60 60 61 59 59 60 60 61 60 61
56 58 65 65 73 76 73 71 74 77 78 75 74 75 76 72 71 72 70 70 68 68 68 68 67 66 66 66 63 62 63 63 63 62 61 62 62 64 62 61 61 60 59 59 59 59 60 61 61
66 63 63 70 77 74 69 71 72 75 75 72 73 72 73 70 70 71 71 70 68 67 66 66 66 65 64 63 62 60 60 62 62 63 64 63 63 64 62 60 61 60 59 59 60 60 60 60 60
66 63 62 69 76 74 71 69 72 73 73 73 73 72 70 66 69 70 67 67 66 66 66 66 66 65 65 63 63 63 62 63 63 63 64 64 65 64 63 61 60 60 59 60 60 60 59 59 61
65 62 62 63 71 74 67 61 66 73 76 77 76 73 70 68 67 67 68 64 65 66 66 66 66 66 66 66 64 62 62 62 61 62 61 62 65 65 64 62 61 61 60 59 60 60 60 58 60
60 71 70 68 64 53 66 46 60 67 69 73 73 68 68 69 69 68 67 64 65 66 67 68 66 66 67 66 64 63 60 59 61 62 62 61 65 64 64 63 62 61 60 60 61 61 60 62 59
66 74 71 69 64 57 58 50 55 66 65 70 69 69 69 70 68 67 67 67 67 68 66 66 66 66 67 66 66 63 62 62 62 61 61 61 62 63 65 64 62 61 60 60 62 60 60 62 60
77 71 69 67 59 44 55 53 53 59 66 68 72 72 70 68 68 68 68 68 67 66 66 66 65 65 67 67 66 63 62 63 61 59 59 59 61 61 63 65 62 62 61 61 62 62 61 61 60
73 61 48 39 40 39 60 54 57 66 70 72 70 68 68 69 68 67 67 66 65 64 64 66 65 64 67 67 67 63 62 62 60 59 59 59 59 59 60 62 61 61 62 63 63 63 63 62 61
66 62 46 37 38 47 62 52 61 70 73 74 73 70 69 67 68 67 66 66 66 66 64 66 65 64 67 66 67 63 63 62 60 59 60 60 59 59 61 61 62 63 63 63 62 61 62 63 62
66 58 64 53 52 47 54 62 66 70 71 72 70 69 65 64 64 66 66 65 65 64 64 65 65 66 66 66 67 63 64 63 62 61 60 60 60 61 62 62 62 62 63 62 62 63 63 62 62
71 69 55 49 39 35 50 53 54 62 66 69 67 65 64 64 65 66 67 65 64 65 65 65 66 66 66 67 67 66 68 64 63 62 62 61 61 61 62 62 62 63 63 62 63 63 62 61 61
66 59 57 55 51 40 37 47 63 64 66 67 67 68 66 67 66 66 66 66 65 65 65 65 66 66 66 67 67 70 69 66 65 63 62 63 61 62 63 62 62 63 62 62 62 61 62 61 63
67 62 58 53 46 51 48 49 68 67 69 68 69 69 66 67 66 68 67 66 65 64 65 65 66 66 66 67 68 69 68 66 64 64 64 63 62 63 64 64 63 64 63 62 63 63 63 61 60
MSLP
1012.10 1012.28 1012.65 1012.43 1012.70 1011.43 1010.27 1008.34 1005.94 1005.13 1004.61 1004.32 1004.31 1004.97 1005.82 1006.33 1007.05 1008.99 1008.90 1008.95 1009.70 1010.51 1011.02 1011.48 1011.62 1011.86 1012.15 1012.44 1012.67 1012.97 1013.31 1013.52 1013.71 1013.85 1014.04 1014.11 1014.39 1014.46 1014.65 1014.75 1014.87 1014.86 1014.94 1014.91 1014.79 1014.70 1014.72 1014.75 1014.69
1011.65 1012.02 1012.30 1011.79 1011.75 1010.99 1009.26 1007.36 1006.17 1004.81 1004.24 1003.95 1004.10 1004.56 1005.51 1006.91 1006.90 1008.06 1008.47 1008.91 1009.16 1009.91 1010.66 1011.04 1011.17 1011.34 1011.74 1012.02 1012.38 1012.78 1013.16 1013.32 1013.41 1013.58 1013.71 1013.83 1014.00 1014.19 1014.30 1014.39 1014.54 1014.64 1014.63 1014.68 1014.67 1014.58 1014.54 1014.46 1014.51
1011.34 1011.16 1011.85 1011.07 1010.50 1009.78 1008.58 1006.84 1005.10 1004.31 1003.72 1003.81 1004.04 1004.26 1005.32 1006.47 1007.05 1007.60 1007.82 1008.33 1008.88 1009.53 1009.97 1010.35 1010.86 1011.14 1011.58 1011.95 1012.27 1012.62 1012.86 1013.11 1013.21 1013.30 1013.41 1013.47 1013.62 1013.80 1014.00 1014.15 1014.19 1014.24 1014.20 1014.22 1014.31 1014.19 1014.21 1014.21 1014.15
1011.74 1011.34 1011.15 1010.40 1009.62 1008.06 1006.29 1005.40 1004.93 1004.24 1003.77 1003.76 1003.98 1004.78 1005.71 1005.85 1006.45 1007.13 1007.54 1007.93 1008.25 1009.07 1009.53 1010.01 1010.66 1011.00 1011.67 1012.09 1012.35 1012.47 1012.67 1012.84 1012.98 1013.05 1013.09 1013.21 1013.30 1013.42 1013.59 1013.67 1013.76 1013.70 1013.78 1013.88 1013.82 1013.85 1013.80 1013.90 1013.96
1011.77 1011.12 1010.88 1010.02 1008.62 1007.11 1005.75 1004.60 1004.24 1004.32 1004.10 1004.10 1004.06 1004.86 1005.93 1006.48 1006.55 1007.01 1007.49 1007.97 1008.62 1009.14 1009.52 1010.02 1010.56 1011.10 1011.58 1012.00 1012.19 1012.25 1012.46 1012.60 1012.83 1012.84 1012.84 1012.94 1013.01 1013.06 1013.18 1013.27 1013.23 1013.22 1013.34 1013.40 1013.50 1013.48 1013.54 1013.63 1013.83
1011.61 1010.69 1010.79 1009.90 1007.95 1006.52 1005.09 1004.10 1004.22 1004.00 1003.99 1004.17 1004.57 1005.52 1006.66 1006.76 1006.89 1007.19 1007.47 1008.04 1008.64 1009.29 1009.69 1010.14 1010.40 1010.93 1011.22 1011.63 1011.96 1012.20 1012.41 1012.61 1012.78 1012.78 1012.87 1012.91 1012.89 1012.80 1012.80 1012.81 1012.85 1012.79 1012.80 1012.75 1012.89 1013.21 1013.21 1013.46 1013.61
1011.48 1011.19 1010.46 1009.57 1008.09 1006.17 1004.77 1004.45 1004.02 1003.86 1003.72 1003.93 1004.43 1005.35 1006.85 1006.97 1006.77 1007.11 1007.53 1008.14 1008.54 1009.05 1009.64 1010.01 1010.18 1010.55 1010.81 1011.30 1011.70 1012.01 1012.22 1012.48 1012.57 1012.55 1012.58 1012.62 1012.60 1012.48 1012.37 1012.37 1012.39 1012.39 1012.36 1012.31 1012.30 1012.69 1012.92 1013.13 1013.39
1010.49 1010.63 1009.95 1008.92 1007.88 1006.17 1004.73 1003.63 1003.09 1003.24 1003.09 1003.23 1003.55 1004.76 1006.52 1006.62 1006.68 1007.03 1007.52 1008.01 1008.38 1008.77 1009.24 1009.72 1009.87 1010.15 1010.73 1011.27 1011.49 1011.71 1011.87 1012.10 1012.31 1012.28 1012.27 1012.36 1012.38 1012.18 1011.99 1011.84 1011.87 1011.79 1011.72 1011.78 1011.89 1012.36 1012.67 1012.84 1013.10
1009.93 1010.08 1009.15 1008.08 1007.31 1005.68 1004.60 1004.14 1003.36 1002.79 1003.03 1003.18 1003.37 1003.69 1004.47 1005.64 1006.36 1007.04 1007.73 1008.13 1008.33 1008.63 1008.88 1009.25 1009.81 1010.19 1010.77 1011.22 1011.42 1011.44 1011.63 1011.65 1011.86 1011.85 1011.84 1011.92 1011.96 1011.95 1011.81 1011.53 1011.33 1011.28 1011.30 1011.34 1011.59 1012.08 1012.43 1012.62 1012.81
1009.29 1008.91 1007.56 1007.06 1006.34 1005.41 1004.61 1004.11 1003.65 1003.38 1003.21 1003.22 1003.30 1003.88 1004.73 1005.46 1006.33 1007.07 1007.56 1007.93 1008.22 1008.46 1009.04 1009.18 1009.80 1010.11 1010.33 1010.57 1011.20 1011.59 1011.49 1011.34 1011.51 1011.58 1011.63 1011.66 1011.64 1011.63 1011.35 1011.10 1010.90 1010.89 1010.83 1011.14 1011.42 1011.77 1012.21 1012.32 1012.68
1007.86 1007.28 1006.49 1006.03 1005.37 1004.70 1004.27 1003.86 1003.48 1003.47 1003.46 1003.10 1003.25 1004.06 1004.71 1005.35 1006.21 1006.77 1007.12 1007.30 1007.92 1008.35 1008.88 1009.12 1009.50 1009.89 1010.44 1010.76 1011.07 1011.13 1011.08 1011.18 1011.32 1011.28 1011.32 1011.48 1011.41 1011.32 1011.24 1011.15 1010.82 1010.95 1010.76 1011.08 1011.22 1011.64 1011.89 1012.13 1012.49
1007.11 1006.40 1005.83 1005.20 1004.66 1004.23 1003.94 1003.54 1003.45 1003.41 1003.04 1002.56 1002.64 1003.36 1004.42 1005.27 1006.00 1006.56 1006.91 1007.58 1007.82 1008.33 1008.93 1009.09 1009.48 1009.97 1010.49 1010.77 1010.97 1010.93 1011.11 1011.16 1011.16 1011.03 1011.02 1011.25 1011.33 1011.18 1011.06 1010.99 1010.88 1010.95 1010.98 1011.17 1011.29 1011.59 1011.75 1012.00 1012.15
1006.36 1005.66 1005.01 1004.31 1003.84 1003.61 1003.20 1003.28 1003.18 1003.05 1002.55 1002.31 1002.55 1003.17 1004.08 1004.85 1005.60 1006.02 1006.66 1007.36 1007.71 1008.27 1008.82 1009.04 1009.56 1010.03 1010.47 1010.72 1010.90 1010.90 1010.96 1010.76 1010.65 1010.60 1010.68 1010.82 1011.06 1011.01 1010.88 1010.80 1010.74 1010.90 1010.92 1011.16 1011.49 1011.56 1011.75 1011.97 1011.90
1005.55 1004.94 1004.18 1003.74 1003.21 1002.82 1002.73 1002.76 1002.73 1002.38 1001.84 1002.12 1002.34 1002.95 1003.56 1004.25 1004.99 1005.78 1006.65 1007.44 1007.73 1008.06 1008.62 1008.97 1009.48 1009.90 1010.21 1010.54 1010.70 1010.59 1010.44 1010.36 1010.40 1010.32 1010.39 1010.11 1010.28 1010.68 1010.76 1010.73 1010.78 1010.83 1010.81 1010.95 1011.11 1011.32 1011.49 1011.71 1011.84
1004.93 1004.52 1003.75 1003.17 1002.73 1002.27 1002.29 1002.31 1001.98 1001.74 1001.57 1001.93 1002.32 1002.47 1002.88 1003.55 1004.33 1004.93 1005.72 1006.64 1007.13 1007.70 1008.25 1008.88 1009.30 1009.51 1009.93 1010.19 1010.20 1010.28 1010.13 1010.06 1010.22 1010.09 1010.07 1009.97 1010.13 1010.27 1010.42 1010.50 1010.59 1010.64 1010.50 1010.55 1010.71 1011.07 1011.36 1011.56 1011.64
1004.93 1004.24 1003.42 1002.77 1002.35 1001.62 1002.01 1001.32 1001.26 1001.08 1001.38 1001.70 1001.76 1002.00 1002.44 1003.01 1003.43 1004.21 1005.14 1006.06 1006.75 1007.33 1008.11 1008.59 1008.90 1009.24 1009.71 1009.88 1009.90 1009.87 1009.69 1009.58 1009.75 1009.74 1009.82 1009.84 1009.93 1009.94 1010.08 1010.19 1010.33 1010.16 1010.19 1010.39 1010.66 1010.94 1011.23 1011.31 1011.21
1004.55 1003.89 1003.24 1002.31 1001.65 1001.20 1000.93 1000.43 1000.32 1000.42 1000.91 1001.36 1001.63 1001.72 1002.06 1002.36 1003.27 1004.04 1004.83 1005.69 1006.42 1007.12 1007.90 1008.60 1008.80 1009.11 1009.45 1009.56 1009.54 1009.59 1009.52 1009.34 1009.35 1009.44 1009.58 1009.65 1009.70 1009.62 1009.73 1009.84 1009.93 1009.84 1010.00 1010.18 1010.45 1010.78 1010.96 1011.16 1011.17
1004.49 1003.88 1003.07 1002.12 1000.55 1000.62 1000.28 1000.02 999.79 999.86 1000.23 1000.76 1001.13 1001.29 1001.53 1002.22 1003.12 1003.75 1004.83 1005.60 1006.29 1006.96 1007.59 1008.30 1008.68 1009.03 1009.24 1009.28 1009.35 1009.35 1009.15 1009.20 1009.12 1009.36 1009.37 1009.42 1009.46 1009.30 1009.29 1009.42 1009.64 1009.74 1009.86 1010.04 1010.36 1010.65 1010.77 1010.90 1010.94
1004.03 1003.50 1002.62 1001.25 1000.22 1000.45 1000.00 999.54 999.51 999.39 999.85 1000.40 1000.76 1001.01 1001.20 1002.27 1003.00 1003.79 1004.79 1005.47 1006.17 1006.76 1007.52 1008.22 1008.70 1008.90 1009.08 1009.28 1009.47 1009.41 1009.35 1009.14 1009.05 1009.04 1008.91 1008.85 1008.84 1008.90 1009.14 1009.19 1009.41 1009.55 1009.75 1009.97 1010.21 1010.43 1010.69 1010.79 1010.82
1003.09 1002.86 1001.99 1001.10 1000.09 999.69 999.50 999.66 999.21 999.16 999.44 999.60 999.98 1000.24 1000.99 1002.26 1003.52 1004.23 1004.88 1005.55 1006.11 1006.66 1007.25 1008.00 1008.49 1008.67 1008.84 1008.99 1009.01 1008.87 1008.87 1008.83 1008.70 1008.70 1008.67 1008.38 1008.36 1008.49 1008.84 1009.00 1009.23 1009.44 1009.74 1009.87 1010.13 1010.40 1010.62 1010.79 1010.72
1001.93 1001.89 1001.56 1001.20 1000.01 999.27 999.25 999.26 999.15 998.79 998.65 998.75 998.95 999.16 1000.54 1001.76 1003.08 1004.19 1004.83 1005.47 1006.14 1006.64 1007.04 1007.75 1008.20 1008.46 1008.51 1008.67 1008.67 1008.82 1008.77 1008.78 1008.73 1008.64 1008.59 1008.48 1008.32 1008.41 1008.60 1008.91 1009.12 1009.34 1009.56 1009.81 1009.99 1010.16 1010.47 1010.88 1010.86
1000.82 1000.59 1000.72 1000.49 1000.34 1000.38 999.49 1000.13 999.88 999.37 999.00 998.64 998.54 999.38 1000.50 1001.65 1002.68 1003.67 1004.54 1005.35 1005.95 1006.47 1006.84 1007.45 1007.98 1008.18 1008.34 1008.40 1008.71 1008.81 1008.98 1009.09 1008.63 1008.47 1008.52 1008.57 1008.52 1008.65 1008.62 1008.82 1009.12 1009.30 1009.50 1009.57 1009.66 1009.97 1010.11 1010.29 1011.02
999.25 999.41 999.61 999.90 1000.25 1000.38 1000.04 1000.79 999.83 999.51 999.15 998.53 998.75 999.32 1000.13 1001.01 1002.05 1003.31 1004.25 1005.02 1005.77 1006.23 1006.79 1007.39 1007.79 1008.01 1008.16 1008.22 1008.27 1008.58 1008.78 1008.74 1008.45 1008.46 1008.65 1008.63 1008.75 1008.70 1008.80 1008.85 1009.19 1009.42 1009.45 1009.51 1009.57 1009.97 1010.14 1010.32 1010.97
998.14 998.73 999.19 999.75 1000.33 1000.66 1000.66 1000.89 999.83 999.52 998.71 998.44 998.24 998.95 999.93 1001.03 1002.21 1003.36 1004.22 1004.97 1005.68 1006.20 1006.77 1007.23 1007.74 1007.98 1007.94 1008.09 1008.08 1008.55 1008.73 1008.65 1008.70 1008.77 1008.88 1008.95 1008.91 1008.84 1008.86 1009.09 1009.26 1009.39 1009.53 1009.67 1009.74 1009.99 1010.34 1010.52 1010.79
997.51 998.44 999.80 1000.58 1001.01 1000.77 1000.56 1000.75 999.25 998.15 997.85 997.79 998.38 999.02 1000.11 1001.07 1002.25 1003.37 1004.23 1005.08 1005.68 1006.39 1006.83 1007.19 1007.65 1007.89 1007.90 1007.97 1008.14 1008.52 1008.76 1008.81 1008.98 1009.06 1009.05 1009.14 1009.26 1009.22 1009.17 1009.32 1009.48 1009.58 1009.62 1009.66 1009.80 1010.02 1010.37 1010.88 1011.07
996.50 997.68 998.97 1000.63 1001.34 1001.22 1000.42 1000.05 997.76 997.34 997.34 997.19 998.06 999.11 1000.22 1001.41 1002.30 1003.26 1004.17 1005.00 1005.68 1006.29 1006.80 1007.07 1007.51 1007.79 1007.74 1007.93 1008.12 1008.33 1008.53 1008.75 1008.96 1009.07 1009.10 1009.20 1009.41 1009.43 1009.40 1009.54 1009.74 1009.82 1009.80 1009.83 1010.08 1010.35 1010.64 1010.90 1011.14
995.45 996.09 997.37 999.41 1000.56 1001.24 1000.15 998.09 996.79 996.82 996.98 997.61 998.65 999.54 1000.86 1001.72 1002.66 1003.35 1004.22 1004.89 1005.56 1006.20 1006.72 1006.97 1007.36 1007.49 1007.69 1007.80 1007.89 1008.35 1008.37 1008.52 1008.86 1009.18 1009.32 1009.39 1009.43 1009.54 1009.62 1009.66 1009.73 1009.96 1010.02 1010.08 1010.40 1010.89 1011.30 1011.54 1011.79
993.86 995.05 996.99 998.94 1001.01 1001.33 1000.13 998.77 997.71 997.32 997.36 997.86 999.19 999.95 1001.01 1001.74 1002.62 1003.26 1004.04 1004.75 1005.39 1005.98 1006.38 1006.74 1007.04 1007.31 1007.54 1007.68 1007.69 1008.07 1008.16 1008.25 1008.57 1008.97 1009.32 1009.46 1009.49 1009.65 1009.77 1009.78 1009.81 1010.07 1010.27 1010.49 1010.72 1011.35 1011.81 1012.23 1012.58
993.17 994.57 996.02 998.14 999.84 1000.59 1000.41 998.69 996.42 996.66 997.00 997.93 998.80 999.63 1000.54 1001.46 1002.40 1003.15 1003.96 1004.53 1005.20 1005.77 1006.19 1006.62 1006.90 1007.13 1007.46 1007.64 1007.65 1007.76 1007.99 1008.35 1008.46 1008.83 1009.23 1009.42 1009.45 1009.62 1009.82 1009.93 1010.03 1010.18 1010.47 1010.85 1011.30 1011.88 1012.31 1012.75 1013.01
992.51 993.83 995.29 997.59 999.26 999.78 999.78 998.19 995.75 996.00 996.49 997.34 998.49 999.40 1000.25 1001.07 1001.95 1002.85 1003.67 1004.36 1005.06 1005.70 1006.21 1006.53 1006.77 1007.11 1007.32 1007.55 1007.67 1007.70 1008.01 1008.31 1008.67 1008.87 1009.14 1009.27 1009.43 1009.62 1009.83 1010.08 1010.30 1010.50 1010.81 1011.15 1011.65 1012.21 1012.78 1013.10 1013.49
Wind_Speed
6 5 2 2 2 2 5 9 6 2 5 4 7 7 2 5 4 5 5 12 17 13 12 14 18 17 16 14 13 12 11 10 10 10 10 9 10 10 10 8 7 6 8 9 11 12 12 11 10
6 6 3 3 2 1 5 10 15 4 6 7 3 4 7 4 6 9 6 15 16 15 11 12 18 18 17 15 13 11 10 12 12 10 9 10 11 12 12 11 11 10 10 10 12 13 13 13 11
3 10 2 4 4 5 4 12 14 7 6 4 3 4 5 8 9 8 8 16 15 14 14 13 19 16 15 13 12 11 12 11 10 9 9 9 11 12 13 13 14 13 13 12 13 14 13 13 12
3 3 4 1 10 13 4 9 4 4 6 6 5 6 5 4 6 10 9 10 10 12 11 14 17 14 11 10 10 12 10 10 9 10 10 11 12 12 12 14 15 15 15 15 14 14 13 11 12
3 3 4 5 12 17 4 8 3 5 7 2 6 3 7 3 10 10 9 7 10 9 10 11 14 11 9 8 8 6 3 3 1 6 8 9 10 10 11 13 15 16 17 16 17 16 12 10 10
3 2 3 6 14 7 5 4 5 4 5 5 6 9 4 7 8 8 9 8 10 12 10 8 14 13 11 10 7 7 6 4 2 4 7 9 11 13 14 15 16 18 19 18 18 18 14 10 8
5 2 7 13 15 16 12 5 1 3 2 2 4 2 5 7 9 9 9 9 8 10 12 9 8 11 14 12 11 9 8 6 5 5 8 11 13 15 16 17 18 20 20 20 18 19 16 11 9
3 2 10 12 11 14 15 4 10 7 6 8 9 5 6 7 10 9 9 9 8 8 8 9 9 8 7 6 13 12 10 8 6 7 8 8 8 12 14 15 16 18 18 19 17 18 16 12 10
12 6 13 17 14 17 10 6 7 6 1 2 7 8 10 12 10 8 6 6 6 7 9 8 7 8 7 6 7 10 11 9 9 8 3 2 4 6 10 9 15 19 18 18 16 18 15 12 12
13 9 23 15 17 17 9 8 8 7 9 8 3 8 13 14 9 9 8 8 8 8 4 6 8 7 6 2 5 5 5 4 3 1 3 3 4 4 6 9 8 8 15 16 14 16 17 13 4
17 18 18 16 21 20 13 8 8 11 11 8 6 10 12 7 9 9 9 7 8 8 7 8 8 7 6 2 1 1 2 2 2 6 5 4 4 3 3 3 2 2 5 3 7 8 5 5 4
18 21 21 22 21 20 8 6 9 14 14 7 5 14 10 9 10 9 7 9 9 8 7 8 8 7 5 3 0 2 2 2 3 4 6 4 3 4 3 2 3 3 2 4 4 3 5 5 7
21 23 22 22 21 9 5 9 14 20 9 6 7 10 11 10 9 8 7 9 9 9 7 8 8 6 5 3 2 3 3 3 4 3 4 4 4 3 2 3 2 2 3 3 4 5 4 5 6
19 18 21 22 18 7 9 14 18 16 7 7 7 8 9 11 12 7 9 8 8 8 8 7 6 7 6 4 5 5 4 5 4 3 4 6 4 3 3 3 3 3 3 4 4 5 4 5 4
16 22 23 19 14 11 14 17 17 10 8 8 9 10 10 10 13 14 12 11 11 8 8 8 8 8 7 7 7 4 5 4 4 3 4 3 3 4 4 4 3 4 3 4 5 4 3 4 5
18 19 20 10 12 20 10 19 14 10 9 10 11 10 9 12 14 10 12 11 9 9 8 7 4 7 7 6 5 4 5 4 4 4 3 4 4 4 4 4 3 4 3 4 4 3 3 4 5
11 13 14 15 18 22 12 20 18 11 9 9 10 9 11 11 6 13 11 11 10 9 8 5 4 3 3 4 4 4 5 4 4 3 3 3 5 6 4 4 3 4 3 4 4 3 3 4 3
13 10 13 19 24 18 18 16 9 12 12 12 10 9 9 9 15 15 14 12 10 9 8 6 4 4 4 4 3 2 3 2 3 3 3 5 4 6 4 3 4 3 3 3 2 4 3 3 4
14 14 19 23 21 22 5 20 10 10 8 8 9 8 8 11 10 14 13 12 10 9 9 7 5 5 3 2 1 1 2 2 2 4 6 7 5 6 4 3 3 3 4 4 4 3 3 4 3
17 19 24 23 21 10 17 18 9 8 7 9 11 10 6 8 12 11 11 8 8 9 9 7 6 5 3 1 2 2 2 3 2 3 3 3 5 5 4 4 4 4 3 4 4 4 2 1 4
20 20 21 20 22 18 5 7 4 5 8 9 12 8 14 20 15 12 12 10 9 9 8 7 6 6 2 2 3 2 2 3 2 2 1 2 2 3 4 4 4 4 4 4 4 4 5 3 1
21 20 23 23 17 8 2 6 4 6 9 9 7 10 14 16 13 14 12 10 9 7 8 6 7 5 3 2 3 2 2 2 2 1 1 1 2 3 3 5 4 4 1 5 5 4 4 5 3
21 18 22 22 16 5 3 2 5 6 10 17 8 12 15 16 18 16 13 11 8 8 7 7 7 5 5 3 3 2 3 2 2 2 4 3 2 1 4 4 5 4 2 3 7 6 5 6 3
24 16 18 12 5 2 6 7 7 8 8 5 7 10 14 11 14 13 12 11 8 7 8 7 6 4 4 4 1 7 6 5 4 3 4 3 1 1 5 4 4 3 3 3 4 5 5 5 3
19 12 7 4 1 8 6 4 10 10 9 8 8 8 11 13 15 15 14 11 8 9 8 7 6 5 4 2 5 7 6 6 6 4 3 4 2 2 3 3 3 2 1 2 4 5 5 5 5
16 14 8 9 4 7 7 10 19 12 10 11 11 11 13 12 13 13 13 11 9 9 9 8 7 5 4 4 4 6 6 4 4 3 2 4 3 2 3 4 3 2 3 3 4 4 5 8 6
21 11 13 6 2 2 6 8 5 7 9 9 13 13 11 10 11 12 12 10 9 9 9 8 7 7 4 6 3 6 6 5 5 5 3 3 4 2 3 3 4 5 5 4 6 7 8 8 6
23 7 6 2 7 6 6 7 5 9 10 7 13 12 10 10 11 11 12 10 8 8 7 6 7 8 7 6 4 6 6 6 5 5 5 4 4 3 3 4 5 6 6 5 7 8 8 8 5
12 5 5 8 7 6 3 9 8 11 9 15 15 14 15 14 12 11 10 9 9 8 8 6 6 7 6 5 4 5 5 6 5 5 6 4 3 5 5 5 5 6 6 6 8 8 9 9 10
10 9 9 9 6 5 6 8 6 11 11 11 15 13 10 12 11 12 11 10 10 9 8 7 5 7 7 6 4 4 6 6 5 5 6 5 5 5 6 6 6 6 6 7 9 10 9 9 9
Wind_Direction
164 170 229 291 26 134 260 282 302 359 56 65 75 85 19 58 91 176 209 119 126 144 163 172 172 171 176 183 187 189 192 199 213 223 230 224 231 245 260 262 263 262 258 258 253 252 255 262 268
184 178 250 267 158 292 283 315 304 63 152 109 94 145 99 58 92 128 107 133 140 151 157 174 178 177 182 187 189 194 201 209 218 223 234 232 237 241 253 258 259 257 254 249 252 248 251 251 261
262 227 327 192 214 218 265 238 326 9 41 116 132 91 86 135 122 142 162 136 147 155 165 173 179 180 187 191 192 197 211 224 231 223 230 240 244 247 249 251 258 259 257 250 247 249 244 253 257
236 293 303 229 256 262 221 283 314 16 337 183 147 106 57 132 121 150 156 148 150 152 164 165 172 179 188 198 206 213 223 231 233 240 246 246 248 251 247 251 254 254 254 257 251 247 244 248 259
258 259 225 259 267 274 277 246 74 4 321 7 134 154 112 51 112 126 135 122 109 112 127 146 158 161 177 204 227 250 252 233 267 263 260 257 259 259 259 257 255 255 251 248 246 244 239 239 257
288 162 308 277 284 304 283 60 349 354 305 5 32 101 178 141 123 152 138 125 111 133 129 140 143 153 163 182 190 160 154 146 209 253 263 263 261 257 255 255 254 254 254 252 242 237 229 230 242
226 293 257 275 287 307 304 157 224 260 215 136 121 45 147 169 174 152 129 121 119 129 140 146 152 167 171 174 169 168 167 191 222 256 265 267 267 264 262 261 257 252 248 250 242 227 225 214 234
216 241 279 274 285 284 293 200 200 227 226 164 147 165 186 210 156 132 129 135 157 155 157 156 173 166 144 157 174 182 184 204 212 238 262 254 260 268 265 261 257 252 245 247 237 226 221 215 228
244 251 261 264 269 276 311 351 317 328 162 214 192 164 157 153 141 133 154 169 176 170 158 169 153 131 148 175 182 189 204 201 210 241 263 256 223 247 255 254 250 241 241 239 224 218 218 220 226
228 232 247 258 268 277 297 327 325 351 320 292 227 88 134 149 156 159 176 184 194 166 155 117 114 116 108 126 144 197 233 147 195 235 268 220 243 245 268 271 286 258 236 233 220 211 215 213 200
236 240 251 254 259 272 284 317 310 308 293 269 155 158 156 156 166 185 193 191 144 144 121 131 130 121 116 88 94 287 300 171 226 225 218 235 245 259 277 288 277 259 253 227 200 199 206 190 193
250 245 250 255 258 256 254 289 291 280 265 258 190 152 157 166 185 187 193 147 141 118 122 112 113 118 118 111 253 272 127 196 242 248 226 205 239 242 258 276 278 213 199 200 182 188 199 205 201
243 248 253 260 264 247 261 267 263 268 273 295 137 138 171 176 184 189 148 130 132 116 120 115 122 126 136 149 240 255 258 244 259 263 248 201 214 233 269 275 249 233 201 192 198 205 202 208 223
249 254 252 254 263 247 256 261 259 253 247 239 149 159 169 175 189 146 136 143 127 129 130 135 133 151 155 192 219 233 233 238 242 257 281 213 179 219 238 257 262 243 209 209 199 207 210 215 213
259 264 273 265 264 258 243 254 254 250 225 229 200 206 203 195 162 172 159 152 144 144 136 145 164 171 171 206 225 228 237 238 231 228 226 208 206 232 235 247 255 241 234 214 198 216 213 217 238
276 259 258 252 265 258 228 258 239 235 217 238 227 224 187 200 185 161 152 137 133 128 144 168 168 166 201 214 219 213 234 234 220 217 202 218 246 255 237 243 239 230 211 199 198 187 214 228 209
256 259 262 268 245 259 224 247 243 205 221 251 227 227 205 208 129 146 144 139 136 136 136 159 158 143 213 235 252 230 265 252 222 206 199 218 250 258 232 228 248 221 204 189 181 190 188 209 197
235 257 253 256 258 256 258 261 199 201 204 227 245 227 223 166 159 148 142 139 138 144 140 140 151 203 205 253 304 240 257 261 207 216 205 218 232 255 232 212 248 192 176 188 167 192 209 209 183
242 248 249 254 257 250 274 271 218 209 207 226 240 241 218 160 155 138 142 140 138 138 142 162 179 213 181 287 245 208 250 238 213 221 226 226 217 236 239 201 236 182 174 186 190 181 216 235 143
228 249 261 274 277 264 214 245 236 205 206 216 227 243 196 117 136 141 137 135 142 148 155 177 186 209 199 229 235 172 200 243 192 206 241 267 235 202 207 198 206 184 170 197 192 181 130 162 164
238 231 250 258 275 285 289 321 297 237 229 258 245 212 140 150 152 153 149 147 147 154 162 175 192 164 157 309 17 40 10 346 20 279 236 290 76 159 182 170 159 188 168 177 161 146 138 145 348
239 223 236 249 258 251 104 274 303 301 288 280 254 133 148 155 155 153 154 148 154 165 161 166 158 157 170 83 58 73 125 264 256 208 62 142 111 208 145 151 166 176 160 147 140 134 143 122 159
240 224 230 240 248 223 278 298 254 277 284 287 172 155 161 162 156 160 154 147 152 153 163 152 147 152 153 163 169 116 36 303 313 70 87 91 39 22 156 164 148 170 203 173 136 133 146 173 146
231 232 240 243 190 272 211 178 264 232 238 199 169 162 162 145 142 137 141 141 149 149 145 142 152 174 183 193 167 91 74 27 49 60 80 69 66 335 136 118 112 123 87 155 159 156 154 142 126
221 217 244 329 358 225 215 279 235 260 229 164 130 126 137 134 137 143 148 147 145 148 151 151 154 168 211 208 99 110 97 81 80 71 70 63 63 58 107 104 88 97 168 104 128 131 133 111 120
223 195 172 199 167 250 242 238 249 219 165 120 128 126 124 130 141 144 141 144 145 150 153 165 169 165 210 150 115 130 116 120 108 89 62 92 99 118 118 116 126 140 153 142 121 92 83 85 91
241 202 180 137 213 249 238 276 223 159 126 126 128 123 129 133 138 141 140 146 147 150 163 173 169 180 172 134 156 139 136 139 140 123 92 87 106 116 131 151 149 149 150 155 112 101 91 74 68
210 174 133 70 190 264 292 306 225 151 172 160 135 135 137 139 141 143 145 147 150 154 167 171 165 166 161 155 188 148 155 154 150 143 131 97 137 112 113 124 118 119 125 121 109 100 93 91 74
216 172 121 129 148 174 232 268 205 176 162 145 149 150 150 152 148 146 146 146 148 150 156 167 157 155 146 130 143 133 157 136 118 115 120 129 127 132 123 125 125 125 125 116 106 102 102 95 107
188 159 148 167 229 224 175 272 140 140 152 133 146 148 146 150 145 146 146 143 146 155 159 169 176 154 159 156 135 118 109 114 107 109 132 129 111 124 136 122 125 112 112 107 115 113 109 113 112